Location: Street
(51.1247°N, 2.7429°W)
Time: 18:38:42
(UTC+00:00)

N. Korean satellite - Pass Details

Date: 27 October 2020
Orbit: 453 x 503 km, 97.2° (Epoch: 04 December)

Event Time Altitude Azimuth Distance (km) Brightness Sun altitude
Rises 05:22:22 0° 19° (NNE) 2,490 10.4 -15.1°
Reaches altitude 10° 05:24:32 10° 28° (NNE) 1,606 9.5 -14.8°
Maximum altitude 05:27:45 36° 97° (E) 735 8.2 -14.3°
Drops below altitude 10° 05:30:56 10° 167° (SSE) 1,588 9.4 -13.8°
Sets 05:33:03 0° 176° (S) 2,456 10.3 -13.4°
